Change the Weather History Date:

Saturday, April 21, 2012

  Actual Average Record
Temperature  
Mean Temperature 62 °F -  
Max Temperature 77 °F 73 °F 94 °F (1985)
Min Temperature 48 °F 46 °F 32 °F (1988)
Degree Days  
Heating Degree Days 2    
Growing Degree Days 12 (Base 50)    
Moisture  
Dew Point 56 °F    
Average Humidity 80    
Maximum Humidity 100    
Minimum Humidity 47    
Precipitation  
Precipitation 0.28 in - - ()
Sea Level Pressure  
Sea Level Pressure 29.80 in    
Wind  
Wind Speed 3 mph (SW)    
Max Wind Speed 15 mph    
Max Gust Speed 22 mph    
Visibility 8 miles    
Events Fog , Rain , Thunderstorm    
Averages and records for this station are not official NWS values.
T = Trace of Precipitation, MM = Missing Value Source: NWS Daily Summary

Daily Weather History Graph

Daily Weather History Graph

Search for Another Location

Airport or City:

Trip Planner

Search our weather history database for the weather conditions in past years. The results will help you decide how hot, cold, wet, or windy it might be!

Date:

Astronomy

Apr. 21, 2012 Rise Set
Actual Time 6:34 AM EDT 7:55 PM EDT
Civil Twilight 6:07 AM EDT 8:22 PM EDT
Nautical Twilight 5:35 AM EDT 8:54 PM EDT
Astronomical Twilight 5:01 AM EDT 9:28 PM EDT
Moon 6:30 AM EDT (4/21) 8:32 PM EDT (4/21)
Length of Visible Light 14h 15m
Length of Day
13h 21m
New Moon, 0% of the Moon is Illuminated
Apr 21
New Moon
Apr 29
First Quarter
May 5
Full
May 12
Last Quarter
May 20
New

Hourly Weather History & Observations

Time (EDT) Temp. Dew Point Humidity Pressure Visibility Wind Dir Wind Speed Gust Speed Precip Events Conditions
12:15 AM 53.6 °F 53.6 °F 100% 29.89 in 1.8 mi Calm Calm - N/A   Mostly Cloudy
12:35 AM 53.6 °F 53.6 °F 100% 29.89 in 5.0 mi Calm Calm - N/A   Scattered Clouds
12:55 AM 51.8 °F 51.8 °F 100% 29.89 in 1.0 mi Calm Calm - N/A   Mist
1:15 AM 51.8 °F 51.8 °F 100% 29.89 in 10.0 mi Calm Calm - N/A   Clear
1:35 AM 51.8 °F 51.8 °F 100% 29.88 in 5.0 mi Calm Calm - N/A   Clear
1:55 AM 53.6 °F 53.6 °F 100% 29.88 in 7.0 mi Calm Calm - N/A   Clear
2:15 AM 51.8 °F 51.8 °F 100% 29.88 in 4.0 mi Calm Calm - N/A   Clear
2:35 AM 51.8 °F 51.8 °F 100% 29.87 in 1.5 mi Calm Calm - N/A   Scattered Clouds
2:55 AM 51.8 °F 51.8 °F 100% 29.87 in 1.5 mi Calm Calm - N/A   Scattered Clouds
3:15 AM 50.0 °F 50.0 °F 100% 29.86 in 1.0 mi Calm Calm - N/A   Mist
3:35 AM 51.8 °F 51.8 °F 100% 29.86 in 0.5 mi Calm Calm - N/A Fog Fog
3:55 AM 50.0 °F 50.0 °F 100% 29.85 in 1.0 mi Calm Calm - N/A   Overcast
4:15 AM 50.0 °F 50.0 °F 100% 29.85 in 1.5 mi Calm Calm - N/A   Mostly Cloudy
4:35 AM 50.0 °F 50.0 °F 100% 29.85 in 2.5 mi Calm Calm - N/A   Scattered Clouds
4:55 AM 48.2 °F 48.2 °F 100% 29.84 in 2.5 mi Calm Calm - N/A   Mostly Cloudy
5:15 AM 50.0 °F 50.0 °F 100% 29.84 in 5.0 mi Calm Calm - N/A   Scattered Clouds
5:35 AM 48.2 °F 48.2 °F 100% 29.84 in 10.0 mi Calm Calm - N/A   Mostly Cloudy
5:55 AM 50.0 °F 50.0 °F 100% 29.84 in 2.5 mi Calm Calm - N/A   Mostly Cloudy
6:15 AM 50.0 °F 50.0 °F 100% 29.84 in 3.0 mi Calm Calm - N/A   Overcast
6:35 AM 48.2 °F 48.2 °F 100% 29.84 in 4.0 mi Calm Calm - N/A   Scattered Clouds
6:55 AM 50.0 °F 50.0 °F 100% 29.84 in 3.0 mi Calm Calm - N/A   Scattered Clouds
7:15 AM 48.2 °F 48.2 °F 100% 29.84 in 10.0 mi Calm Calm - N/A   Scattered Clouds
7:35 AM 50.0 °F 50.0 °F 100% 29.84 in 7.0 mi Calm Calm - N/A   Scattered Clouds
7:55 AM 53.6 °F 53.6 °F 100% 29.85 in 7.0 mi Calm Calm - N/A   Scattered Clouds
8:15 AM 57.2 °F 57.2 °F 100% 29.85 in 5.0 mi SSW 3.5 mph - N/A   Scattered Clouds
8:35 AM 59.0 °F 59.0 °F 100% 29.84 in 7.0 mi Calm Calm - N/A   Scattered Clouds
8:55 AM 60.8 °F 60.8 °F 100% 29.84 in 7.0 mi SSW 5.8 mph - N/A   Clear
9:15 AM 62.6 °F 60.8 °F 94% 29.84 in 10.0 mi SW 5.8 mph - N/A   Clear
9:35 AM 64.4 °F 60.8 °F 88% 29.84 in 10.0 mi SW 5.8 mph - N/A   Clear
9:55 AM 68.0 °F 60.8 °F 78% 29.83 in 10.0 mi WSW 5.8 mph - N/A   Clear
10:15 AM 69.8 °F 60.8 °F 73% 29.82 in 10.0 mi West 4.6 mph - N/A   Clear
10:35 AM 69.8 °F 60.8 °F 73% 29.84 in 10.0 mi SSW 9.2 mph - N/A   Clear
10:55 AM 69.8 °F 60.8 °F 73% 29.84 in 10.0 mi SW 5.8 mph - N/A   Mostly Cloudy
11:15 AM 69.8 °F 60.8 °F 73% 29.84 in 10.0 mi SW 12.7 mph 16.1 mph N/A   Overcast
11:35 AM 71.6 °F 60.8 °F 69% 29.82 in 10.0 mi SW 6.9 mph - N/A   Mostly Cloudy
11:55 AM 71.6 °F 60.8 °F 69% 29.82 in 10.0 mi SSW 8.1 mph - N/A   Overcast
12:15 PM 71.6 °F 59.0 °F 64% 29.82 in 10.0 mi SW 10.4 mph - N/A   Overcast
12:35 PM 73.4 °F 59.0 °F 61% 29.81 in 10.0 mi SSW 8.1 mph - N/A   Mostly Cloudy
12:55 PM 73.4 °F 59.0 °F 61% 29.80 in 10.0 mi SW 9.2 mph - N/A   Mostly Cloudy
1:15 PM 73.4 °F 59.0 °F 61% 29.79 in 10.0 mi SW 9.2 mph 17.3 mph N/A   Mostly Cloudy
1:35 PM 75.2 °F 59.0 °F 57% 29.79 in 10.0 mi South 10.4 mph 16.1 mph N/A   Mostly Cloudy
1:55 PM 75.2 °F 59.0 °F 57% 29.78 in 10.0 mi SSW 8.1 mph 17.3 mph N/A   Overcast
2:15 PM 77.0 °F 59.0 °F 54% 29.77 in 10.0 mi SSW 10.4 mph 16.1 mph N/A   Mostly Cloudy
2:35 PM 77.0 °F 59.0 °F 54% 29.76 in 10.0 mi SSW 8.1 mph 17.3 mph N/A   Mostly Cloudy
2:55 PM 77.0 °F 59.0 °F 54% 29.76 in 10.0 mi SSW 12.7 mph 18.4 mph N/A   Scattered Clouds
3:15 PM 77.0 °F 57.2 °F 50% 29.75 in 10.0 mi South 12.7 mph 17.3 mph N/A   Scattered Clouds
3:35 PM 77.0 °F 55.4 °F 47% 29.73 in 10.0 mi South 9.2 mph 16.1 mph N/A   Scattered Clouds
3:55 PM 77.0 °F 55.4 °F 47% 29.73 in 10.0 mi SSW 11.5 mph - N/A   Mostly Cloudy
4:15 PM 77.0 °F 57.2 °F 50% 29.72 in 10.0 mi SSW 9.2 mph 17.3 mph N/A   Scattered Clouds
4:35 PM 77.0 °F 55.4 °F 47% 29.71 in 10.0 mi SSW 10.4 mph 17.3 mph N/A   Scattered Clouds
4:55 PM 77.0 °F 57.2 °F 50% 29.71 in 10.0 mi South 12.7 mph 18.4 mph N/A   Mostly Cloudy
5:15 PM 77.0 °F 59.0 °F 54% 29.71 in 10.0 mi South 10.4 mph 18.4 mph N/A   Scattered Clouds
5:35 PM 77.0 °F 55.4 °F 47% 29.71 in 10.0 mi SSW 15.0 mph - N/A   Clear
5:55 PM 75.2 °F 53.6 °F 47% 29.72 in 10.0 mi SSW 8.1 mph - N/A   Clear
6:15 PM 73.4 °F 53.6 °F 50% 29.72 in 10.0 mi SSW 6.9 mph - N/A   Clear
6:35 PM 73.4 °F 57.2 °F 57% 29.72 in 10.0 mi SSW 5.8 mph - N/A   Clear
6:55 PM 73.4 °F 59.0 °F 61% 29.72 in 10.0 mi SSW 4.6 mph - N/A   Clear
7:15 PM 71.6 °F 59.0 °F 64% 29.72 in 10.0 mi SSW 3.5 mph - N/A   Clear
7:35 PM 71.6 °F 59.0 °F 64% 29.72 in 10.0 mi Calm Calm - N/A   Clear
7:55 PM 68.0 °F 59.0 °F 73% 29.72 in 10.0 mi Calm Calm - N/A   Clear
8:15 PM 66.2 °F 59.0 °F 78% 29.73 in 10.0 mi Calm Calm - N/A   Clear
8:35 PM 66.2 °F 55.4 °F 68% 29.75 in 10.0 mi North 12.7 mph 21.9 mph N/A   Mostly Cloudy
8:55 PM 64.4 °F 55.4 °F 73% 29.76 in 10.0 mi North 5.8 mph - N/A Thunderstorm Overcast
9:15 PM 64.4 °F 55.4 °F 73% 29.77 in 10.0 mi NNW 9.2 mph - N/A   Overcast
9:35 PM 64.4 °F 55.4 °F 73% 29.76 in 10.0 mi North 10.4 mph - N/A Thunderstorm Thunderstorm
9:55 PM 62.6 °F 57.2 °F 82% 29.76 in 10.0 mi NNW 6.9 mph - N/A   Overcast
10:15 PM 60.8 °F 59.0 °F 94% 29.77 in 7.0 mi North 5.8 mph - 0.01 in Rain , Thunderstorm Heavy Thunderstorms and Rain
10:35 PM 60.8 °F 59.0 °F 94% 29.77 in 10.0 mi Calm Calm - 0.03 in Rain , Thunderstorm Thunderstorms and Rain
10:55 PM 60.8 °F 60.8 °F 100% 29.79 in 4.0 mi SE 5.8 mph - 0.10 in Rain , Thunderstorm Thunderstorms and Rain
11:15 PM 60.8 °F 60.8 °F 100% 29.79 in 3.0 mi Calm Calm - 0.11 in Rain , Thunderstorm Heavy Thunderstorms and Rain
11:35 PM 59.0 °F 59.0 °F 100% 29.77 in 7.0 mi NE 6.9 mph - 0.18 in Rain , Thunderstorm Heavy Thunderstorms and Rain
11:55 PM 59.0 °F 59.0 °F 100% 29.77 in 5.0 mi NNE 3.5 mph - N/A Rain Heavy Rain